Location: Toronto
(43.6672°N, 79.4170°W)
Time: 09:37:04
(UTC-04:00)

Daily predictions for brighter satellites

Satellite Brightness Start Highest point End
(mag) Time Altitude Azimuth Time Altitude Azimuth Time Altitude Azimuth
Lacrosse 5 rocket 4.2 21:16:36 10° NW 21:19:19 15° N 21:22:04 10° NE
Cosmos 2112 Rocket 4.0 21:14:10 10° S 21:19:20 70° ESE 21:24:31 10° NNE
Okean 2 4.3 21:20:56 10° SSE 21:24:29 29° E 21:28:03 10° NNE
Cosmos 2074 Rocket 4.1 21:23:25 10° N 21:29:42 86° W 21:35:59 10° S
Cosmos 2082 Rocket 3.6 21:27:33 10° SE 21:31:24 19° E 21:35:15 10° ENE
COSMOS 2406 3.6 21:25:52 10° SSW 21:31:35 72° WNW 21:37:18 10° NNE
SL-27 R/B 2.5 21:28:50 10° SSW 21:32:29 89° WNW 21:36:09 10° NNE
H-2A R/B 3.6 21:29:22 10° ESE 21:32:54 20° ENE 21:36:30 10° NNE
Cosmos 2184 Rocket 4.2 21:27:46 10° N 21:34:10 83° W 21:40:26 10° S
Cosmos 2058 Rocket 4.4 21:31:53 10° NNE 21:35:30 24° ENE 21:39:01 10° SE
Cosmos 1743 3.8 21:31:59 10° NNW 21:35:44 46° W 21:39:29 10° SSW
PSLV R/B 4.2 21:33:26 10° W 21:36:13 30° SSW 21:38:46 11° SE
Meteor 1-15 Rocket 4.4 21:31:09 10° N 21:36:39 57° ENE 21:42:07 10° SSE
MOS 1-B Rocket 4.5 21:33:02 10° SE 21:38:37 50° ENE 21:45:00 10° N
SAR-Lupe-4 4.1 21:37:51 10° S 21:41:24 59° WSW 21:44:58 10° NNW
Cosmos 1680 Rocket 4.0 21:36:24 10° SSW 21:41:35 65° WNW 21:46:47 10° NNE
Cosmos 192 4.4 21:37:22 10° SSW 21:42:17 87° WNW 21:47:13 10° NNE
Cosmos 2056 Rocket 3.6 21:39:21 10° NNW 21:44:29 62° ENE 21:49:17 11° SSE
YAOGAN 6 2.5 21:43:49 10° S 21:47:19 85° WSW 21:50:51 10° NNW
Envisat 3.9 21:43:37 10° S 21:48:32 49° W 21:53:28 10° NNW
Cosmos 1697 Rocket 4.0 21:44:05 10° N 21:48:54 28° NE 21:53:32 11° ESE
Cosmos 2369 4.1 21:45:34 10° NNW 21:51:11 53° ENE 21:56:03 14° SE
Resurs 01 Rocket 4.3 21:49:10 10° SW 21:52:09 18° W 21:55:08 10° NW
Cosmos 839 Rocket 4.5 21:45:49 10° NNW 21:52:18 68° NE 21:59:18 13° SE
Cosmos 1656 4.4 21:47:17 10° NNW 21:52:22 38° ENE 21:56:48 13° ESE
Cosmos 1666 4.0 21:52:13 10° NNW 21:55:43 38° W 21:59:12 10° SSW
H-2A R/B 4.2 21:55:11 10° E 21:57:49 16° ENE 22:00:29 10° NNE
Tiangong 2 1.0 21:57:58 10° W 22:01:09 73° S 22:04:05 12° E
Nadezhda 1 Rocket 4.3 21:56:02 10° SSW 22:02:23 73° W 22:08:49 10° N
Meteor 2-19 Rocket 4.5 21:57:24 10° N 22:03:33 71° E 22:09:16 12° SSE
Cosmos 1833 Rocket 3.4 22:01:21 10° SSE 22:06:19 34° ESE 22:11:19 10° NE
Cosmos 405 4.1 22:03:42 10° NNW 22:07:05 41° W 22:10:26 10° SSW
MetOp-A 4.1 22:02:23 12° SSE 22:07:23 81° ENE 22:12:46 10° NNW
Cosmos 1437 Rocket 3.0 22:10:05 10° NNW 22:13:54 67° W 22:17:17 13° S
COSMOS 2487 2.7 22:10:54 13° S 22:13:56 49° ESE 22:17:24 10° NNE
SL-8 Rocket 4.3 22:08:17 10° N 22:14:23 51° ENE 22:18:59 18° SSE
Terra 3.3 22:12:17 15° ESE 22:15:04 24° ENE 22:18:52 10° NNE
Cosmos 1452 Rocket 3.9 22:11:12 10° N 22:16:21 50° ENE 22:19:51 20° SE
Cosmos 2154 Rocket 4.3 22:12:05 10° NNW 22:18:25 71° W 22:24:43 10° S
TELKOM 3 3.2 22:16:58 10° WNW 22:19:18 83° NNE 22:20:41 27° ESE
Cosmos 2228 3.2 22:15:47 10° N 22:20:01 57° E 22:22:37 22° SSE
Cosmos 921 Rocket 3.0 22:17:15 10° NNW 22:21:45 87° WSW 22:24:47 20° SSE
SPOT 5 2.5 22:18:47 19° SSE 22:21:52 79° ENE 22:26:16 10° N
SPOT 1/Viking Rocket 3.7 22:20:35 19° SSE 22:24:10 62° ENE 22:29:16 10° N
Cosmos 1066 Rocket 4.5 22:20:34 17° SSE 22:24:38 49° E 22:30:03 10° NNE
Iridium 43 3.7 22:23:10 10° N 22:25:20 45° E 22:25:28 44° E
ERS-1 Rocket 3.7 22:21:33 10° S 22:26:25 51° W 22:31:20 10° NNW
Cosmos 1515 3.8 22:25:10 11° SSW 22:28:49 75° W 22:32:38 10° N
Cosmos 1892 Rocket 3.8 22:32:22 10° SSW 22:36:48 69° W 22:41:12 10° N
Cosmos 1980 Rocket 3.0 22:32:29 10° NNW 22:37:47 39° ENE 22:41:05 21° ESE
SL-24 DEB 4.3 22:34:54 18° S 22:38:16 81° W 22:42:56 10° N
Cosmos 1602 Rocket 3.9 22:40:40 29° SE 22:42:22 44° E 22:46:29 10° NNE
ARGOS 3.4 22:39:41 18° S 22:43:47 66° WSW 22:49:13 10° NNW
ISS -1.6 22:40:53 10° W 22:43:49 28° NNW 22:46:44 10° NE
SL-08 RB Rocket 3.8 22:44:22 23° S 22:47:06 68° WSW 22:51:35 10° NNW
Cosmos 2322 Rocket 4.0 22:44:21 10° N 22:48:33 20° NE 22:52:24 11° E
Cosmos 1766 3.9 22:46:24 10° N 22:50:06 40° ENE 22:51:05 33° ESE
USA 229 DEB 4.2 22:43:49 10° NNW 22:50:51 58° NE 22:55:39 22° ESE
USA 229 4.2 22:43:56 10° NNW 22:50:57 57° NE 22:55:46 22° ESE
deb Chang Zheng 4 4.2 22:49:36 10° NNE 22:53:35 35° E 22:54:23 32° ESE
CZ-3A R/B 1.5 22:53:28 10° WSW 22:55:14 27° W 22:55:14 27° W
Timation 2 Rocket 4.0 22:52:15 18° S 22:56:56 57° ESE 23:02:56 10° NE
SL-08 R/B 4.4 22:51:13 10° N 22:57:22 79° E 23:00:52 27° SSE
Cosmos 1809 Rocket 4.4 22:53:09 10° N 22:59:16 87° E 23:02:48 27° S
Lacrosse 5 rocket 3.7 22:56:20 10° NNW 23:00:02 23° NNE 23:03:45 10° ENE
Cosmos 2218 Rocket 4.0 22:56:33 10° N 23:02:43 84° W 23:06:29 26° S
USA 245 4.3 23:03:30 18° WSW 23:03:52 19° W 23:05:38 10° NW
Cosmos 158 Rocket 4.2 23:02:35 32° SSE 23:04:44 51° ESE 23:09:56 10° NNE
CARTOSAT-1 3.5 23:07:09 41° SSE 23:08:34 76° ENE 23:12:54 10° N
H-2A R/B 2.4 23:09:14 26° SSW 23:11:53 55° W 23:16:52 10° NNW
CZ-4B R/B 4.0 23:09:56 10° NNE 23:14:47 43° E 23:16:02 37° SE
Cosmos 2082 Rocket 2.6 23:09:17 10° SW 23:14:55 65° WNW 23:20:34 10° NNE
Meteor 2-16 Rocket 4.4 23:11:36 10° N 23:17:47 79° E 23:20:36 34° SSE
CZ-4 R/B 4.1 23:13:52 10° NNE 23:18:49 55° E 23:20:15 41° SSE
Cosmos 1805 3.6 23:16:35 10° N 23:20:23 48° ENE 23:20:47 46° E
Cosmos 1758 4.0 23:17:03 10° N 23:20:48 38° ENE 23:21:12 37° E
Meteor 1-4 Rocket 3.6 23:19:17 10° NNW 23:22:37 36° W 23:23:30 31° SW
Meteor 1-22 Rocket 4.3 23:19:17 10° NNW 23:24:34 66° W 23:26:59 33° SSW
IGS 5A 3.5 23:25:25 49° S 23:26:26 73° WSW 23:30:37 10° NNW
Nadezhda 3 Rocket 4.1 23:27:58 36° SSE 23:30:39 66° E 23:36:56 10° NNE
Cosmos 1758 Rocket 4.3 23:30:38 35° E 23:30:44 35° E 23:34:42 10° NNE
Cosmos 1697 Rocket 3.2 23:27:42 10° NW 23:33:06 48° WSW 23:35:16 32° SSW
H-2A R/B 2.4 23:32:00 43° SSW 23:33:19 63° WSW 23:37:50 10° NNW
ATLAS CENTAUR R/B 2.7 23:30:35 10° NNW 23:33:44 26° NE 23:34:34 24° ENE
SL-19 R/B 4.0 23:29:01 10° NNE 23:34:23 87° WNW 23:36:44 34° SSW
Cosmos 1812 Rocket 3.8 23:30:21 10° NNW 23:34:47 63° W 23:36:00 44° SSW
Tiangong 2 2.8 23:34:40 10° W 23:36:17 26° W 23:36:17 26° W
Cosmos 2360 4.1 23:32:16 10° NNW 23:38:01 88° WSW 23:39:55 44° SSE
Cosmos 1269 Rocket 4.0 23:36:00 30° SSW 23:38:43 79° WNW 23:44:03 10° NNE
SL-16 R/B 2.9 23:35:57 10° NNW 23:41:25 45° ENE 23:43:35 31° ESE
Iridium 2 3.7 23:38:07 10° N 23:41:55 70° W 23:42:13 66° SW
Cosmos 1821 Rocket 4.2 23:38:10 10° N 23:44:25 61° E 23:46:37 40° SE
Cosmos 1048 Rocket 4.3 23:45:30 26° SW 23:48:19 63° WNW 23:53:28 10° NNE
CZ-4C R/B 3.1 23:48:47 76° NE 23:48:47 76° NE 23:52:16 10° N
Cosmos 389 Rocket 2.8 23:45:11 10° N 23:48:14 59° NE 23:48:14 59° NE
Cosmos 1842 3.6 23:48:56 53° WSW 23:49:30 60° W 23:53:25 10° N
Cosmos 1833 Rocket 4.0 23:44:57 10° SW 23:50:10 38° WNW 23:55:24 10° NNE
Cosmos 972 Rocket 4.2 23:45:33 10° N 23:50:42 56° ENE 23:51:48 46° ESE
Cosmos 1331 Rocket 4.2 23:45:59 10° NNW 23:51:06 59° ENE 23:52:20 46° ESE
Cosmos 1271 Rocket 3.3 23:48:28 10° NNW 23:52:14 48° W 23:52:36 46° WSW
Terra 2.7 23:51:09 32° SW 23:52:35 40° W 23:57:05 10° NNW
Cosmos 1110 Rocket 4.0 23:48:46 10° NNW 23:54:02 72° ENE 23:55:14 52° SE
